sat.trackr.live / text

‹ back to catalog

STARLINK-34826

NORAD 65360 · 2025-190K

PAYLOAD ACTIVE UNKNOWN

§ Identity

Operator
Country
US
Launch date
2025-08-28
Launch site
AFETR
Launch vehicle
Mass (kg)
RCS (m²)

Purposes: comms

External: N2YO · Heavens-Above · Gunter

§ Orbital elements

Epoch: 2026-05-24T19:28:19.364736Z

Period
93.85 min
Inclination
53.1596°
Eccentricity
0.0001072
Mean motion
15.34397086 rev/d
Perigee alt
462.0 km
Apogee alt
463.4 km
Semi-major
6,840.8 km
B*
5.9854e-4
RAAN
174.3276°
Arg perigee
78.2414°
Mean anomaly
281.8709°
Rev number
4,094

§ Raw data

STARLINK-348261 65360U 25190K   26144.81133524  .00019898  00000+0  59854-3 0  99992 65360  53.1596 174.3276 0001072  78.2414 281.8709 15.34397086 40945

JSON: /api/v1/satellites/65360 · /tle

For live sub-satellite position, see the globe view (requires WebGL).

§ Visibility from observer

Set your observer location to see the next 7 days of passes ≥ 10°. The values pass through the URL so the page stays shareable.

No JS? Fill the form by hand. The geolocation button needs JavaScript.